Location: Gwatt
(46.7204°N, 7.6223°E)
Time: 12:05:36
(UTC+00:00)

Transit 2A - Pass Details

Date: 10 May 2021
Orbit: 601 x 958 km, 66.7° (Epoch: 15 June)

Event Time Altitude Azimuth Distance (km) Brightness Sun altitude
Exits shadow 03:20:24 - 259° (WSW) 2,309 7.9 -6.9°
Reaches altitude 10° 03:21:22 10° 266° (W) 1,992 7.6 -6.7°
Maximum altitude 03:24:53 23° 318° (NW) 1,323 7.2 -6.2°
Drops below altitude 10° 03:28:21 10° 11° (N) 1,953 8.8 -5.7°
Sets 03:31:00 0° 27° (NNE) 2,863 10.2 -5.3°
